AD2FB Weather Reports


Display with metric or nautical units.
time (UTC)temp
F
wind
direction
speed
MPH
gust
MPH
rain 1hr
in
rain 24hr
in
rain mn
in
humidity
%
barometer
mb
20260509214025 70 273 3.0 7.0 0.00 0.30 0.30 62 1007.2
20260509213034 68 231 3.0 6.0 0.00 0.30 0.30 65 1007.2
20260509212023 66 273 2.0 8.0 0.00 0.30 0.30 71 1007.2
20260509211031 62 204 3.0 7.0 0.00 0.30 0.30 77 1007.5
20260509210020 63 188 4.0 8.0 0.00 0.30 0.30 75 1007.5
20260509205028 63 271 3.0 6.0 0.00 0.30 0.30 76 1007.7
20260509204036 62 133 4.0 8.0 0.00 0.30 0.30 77 1007.8
20260509203025 62 352 2.0 4.0 0.00 0.30 0.30 78 1007.8
20260509202033 62 138 3.0 5.0 0.00 0.30 0.30 78 1008.0
20260509201022 62 206 2.0 4.0 0.00 0.30 0.30 79 1008.1
20260509200030 59 217 2.0 4.0 0.00 0.30 0.30 85 1008.3
20260509195040 58 238 3.0 7.0 0.00 0.30 0.30 84 1008.5
20260509194028 59 227 3.0 6.0 0.00 0.30 0.30 82 1008.5
20260509193036 59 331 3.0 6.0 0.00 0.30 0.30 81 1008.5
20260509192025 59 188 3.0 5.0 0.00 0.30 0.30 81 1008.6
20260509191033 60 212 3.0 5.0 0.00 0.30 0.30 80 1008.6
20260509190023 60 215 2.0 4.0 0.00 0.30 0.30 80 1008.8
20260509185030 58 130 3.0 6.0 0.00 0.30 0.30 83 1008.8
20260509184020 58 187 3.0 5.0 0.00 0.30 0.30 83 1008.9
20260509183028 59 303 2.0 6.0 0.00 0.30 0.30 82 1008.9
20260509182036 59 190 3.0 5.0 0.00 0.30 0.30 82 1009.0
20260509181025 59 229 2.0 4.0 0.01 0.30 0.30 82 1009.0
20260509180033 58 250 2.0 4.0 0.01 0.30 0.30 83 1009.0
20260509175023 59 159 2.0 3.0 0.01 0.30 0.30 82 1009.0
20260509174030 58 29 3.0 4.0 0.01 0.30 0.30 83 1009.0
20260509173020 57 219 3.0 6.0 0.01 0.30 0.30 84 1008.9
20260509172027 57 79 2.0 3.0 0.01 0.30 0.30 84 1008.9
20260509171035 57 234 1.0 3.0 0.00 0.29 0.29 85 1008.9
20260509170025 57 72 1.0 2.0 0.00 0.29 0.29 84 1008.9
20260509165033 57 326 3.0 4.0 0.00 0.29 0.29 84 1008.9
20260509164023 57 337 3.0 5.0 0.00 0.29 0.29 83 1008.9
20260509163033 59 258 3.0 5.0 0.00 0.29 0.29 82 1008.9
20260509162020 58 161 2.0 4.0 0.00 0.29 0.29 83 1008.9
20260509161027 57 164 3.0 6.0 0.00 0.29 0.29 85 1009.0
20260509160036 57 335 2.0 4.0 0.00 0.29 0.29 86 1009.2
20260509155025 56 260 2.0 5.0 0.00 0.29 0.29 87 1009.5
20260509154033 56 249 1.0 3.0 0.00 0.29 0.29 89 1009.6
20260509153024 55 212 2.0 5.0 0.00 0.29 0.29 89 1009.6
20260509152051 56 143 3.0 5.0 0.00 0.29 0.29 89 1009.6
20260509151040 56 287 3.0 5.0 0.00 0.29 0.29 90 1009.5
20260509150028 55 178 3.0 7.0 0.00 0.29 0.29 91 1009.5
20260509145036 56 301 1.0 3.0 0.00 0.29 0.29 92 1009.4
20260509144025 55 203 0.0 3.0 0.00 0.29 0.29 94 1009.5
20260509143033 54 270 0.0 2.0 0.00 0.29 0.29 95 1009.5
20260509142023 54 293 0.0 2.0 0.00 0.29 0.29 97 1009.5
20260509141030 53 113 0.0 3.0 0.01 0.29 0.29 97 1009.5
20260509140020 53 141 0.0 2.0 0.01 0.29 0.29 99 1009.8
20260509135028 52 338 1.0 2.0 0.02 0.29 0.29 99 1009.8
20260509134036 51 144 1.0 5.0 0.02 0.29 0.29 99 1010.0
20260509133026 51 25 0.0 3.0 0.03 0.29 0.29 99 1010.2
20260509132054 50 0.0 0.0 0.04 0.29 0.29 99 1010.4
20260509131023 49 0.0 0.0 0.04 0.28 0.28 99 1010.4
20260509130031 49 0.0 0.0 0.05 0.28 0.28 99 1010.3
20260509125041 48 0.0 0.0 0.05 0.27 0.27 99 1010.4
20260509124028 48 0.0 0.0 0.06 0.27 0.27 99 1010.4
20260509123056 47 0.0 0.0 0.06 0.26 0.26 99 1010.3
20260509122026 47 0.0 0.0 0.07 0.25 0.25 99 1010.6
20260509121054 47 0.0 0.0 0.07 0.24 0.24 99 1010.7
20260509120023 47 0.0 0.0 0.09 0.23 0.23 99 1010.5
20260509115051 46 45 0.0 1.0 0.09 0.22 0.22 99 1010.6
20260509114041 46 0.0 0.0 0.10 0.21 0.21 99 1010.7
20260509113029 46 0.0 1.0 0.10 0.20 0.20 99 1010.7
20260509112057 46 0.0 0.0 0.09 0.18 0.18 99 1010.7
20260509111027 45 0.0 0.0 0.09 0.17 0.17 99 1010.8
20260509110034 45 0.0 0.0 0.08 0.14 0.14 99 1010.7
20260509105046 45 0.0 0.0 0.08 0.13 0.13 99 1010.6
20260509104032 45 0.0 0.0 0.06 0.11 0.11 99 1010.5
20260509103022 44 0.0 0.0 0.06 0.10 0.10 99 1010.5
20260509102029 44 0.0 0.0 0.05 0.09 0.09 99 1010.2
20260509101039 44 0.0 0.0 0.05 0.08 0.08 99 1010.4
20260509100027 44 0.0 0.0 0.04 0.06 0.06 99 1010.4
20260509095035 44 0.0 0.0 0.03 0.05 0.05 99 1010.4
20260509094044 44 0.0 0.0 0.03 0.05 0.05 99 1010.4
20260509093032 44 0.0 0.0 0.02 0.04 0.04 99 1010.6
20260509092021 44 0.0 0.0 0.02 0.04 0.04 99 1010.7
20260509091030 44 0.0 0.0 0.01 0.03 0.03 99 1010.7
20260509090019 44 0.0 0.0 0.00 0.02 0.02 99 1010.8
20260509085027 43 0.0 0.0 0.00 0.02 0.02 99 1010.7
20260509084035 43 0.0 0.0 0.00 0.02 0.02 99 1010.6
20260509083024 43 68 0.0 2.0 0.00 0.02 0.02 99 1010.5
20260509082033 43 0.0 0.0 0.00 0.02 0.02 99 1010.8
20260509081022 43 124 1.0 3.0 0.00 0.02 0.02 99 1010.8
20260509080030 43 0.0 1.0 0.00 0.02 0.02 99 1010.8
20260509075020 43 350 2.0 4.0 0.00 0.02 0.02 99 1010.8
20260509074028 43 138 2.0 3.0 0.00 0.02 0.02 99 1010.8
20260509073036 43 262 2.0 3.0 0.00 0.02 0.02 98 1011.2
20260509072025 43 209 1.0 2.0 0.00 0.02 0.02 98 1011.3
20260509071033 43 260 1.0 3.0 0.01 0.02 0.02 98 1011.1
20260509070043 43 273 2.0 4.0 0.01 0.02 0.02 97 1011.1
20260509065030 43 24 2.0 2.0 0.02 0.02 0.02 97 1011.4
20260509064020 43 293 0.0 3.0 0.02 0.02 0.02 96 1011.6
20260509063028 43 96 1.0 2.0 0.02 0.02 0.02 96 1011.7
20260509062036 43 90 0.0 2.0 0.02 0.02 0.02 95 1011.9
20260509061026 43 270 0.0 1.0 0.01 0.01 0.01 93 1012.0
20260509060033 43 0.0 0.0 0.01 0.01 0.01 93 1012.1
20260509055023 44 134 1.0 2.0 0.00 0.00 0.00 93 1012.1
20260509054031 44 0.0 0.0 0.00 0.00 0.00 91 1012.3
20260509053021 44 0.0 0.0 0.00 0.00 0.00 89 1012.3
20260509052028 44 0.0 0.0 0.00 0.00 0.00 87 1012.3
20260509051036 44 0.0 0.0 0.00 0.00 0.00 85 1012.3
20260509050026 45 0.0 0.0 0.00 0.00 0.00 83 1012.3
20260509045034 45 0.0 0.0 0.00 0.00 0.00 81 1012.3
20260509044023 45 299 1.0 3.0 0.00 0.00 0.00 78 1012.3
20260509043031 45 225 0.0 2.0 0.00 0.00 0.00 77 1012.3
20260509042021 45 301 2.0 3.0 0.00 0.00 0.00 77 1012.2
20260509041029 45 13 1.0 3.0 0.00 0.00 0.00 77 1012.2
20260509040056 46 338 2.0 3.0 0.00 0.00 0.00 77 1012.4
20260509035026 46 349 2.0 3.0 0.00 0.00 0.00 76 1012.4
20260509034034 46 42 2.0 3.0 0.00 0.00 0.00 76 1012.5
20260509033024 46 261 1.0 2.0 0.00 0.00 0.00 75 1012.5
20260509032032 46 88 1.0 3.0 0.00 0.00 0.00 75 1012.5
20260509031022 46 308 2.0 3.0 0.00 0.00 0.00 75 1012.6
20260509030029 46 0.0 1.0 0.00 0.00 0.00 75 1012.4
20260509025037 46 318 2.0 4.0 0.00 0.00 0.00 75 1012.4
20260509024027 47 322 2.0 4.0 0.00 0.00 0.00 73 1012.4
20260509023034 47 77 2.0 4.0 0.00 0.00 0.00 73 1012.4
20260509022024 47 274 3.0 4.0 0.00 0.00 0.00 73 1012.4
20260509021032 48 265 3.0 5.0 0.00 0.00 0.00 71 1012.3
20260509020043 48 7 4.0 7.0 0.00 0.00 0.00 71 1012.3
20260509015029 48 322 3.0 4.0 0.00 0.00 0.00 69 1012.3
20260509014019 49 177 3.0 7.0 0.00 0.00 0.00 67 1012.1
20260509013027 50 115 3.0 6.0 0.00 0.00 0.00 64 1011.9
20260509012035 50 266 3.0 5.0 0.00 0.00 0.00 62 1011.9
20260509011024 51 274 2.0 3.0 0.00 0.00 0.00 62 1011.9
20260509010032 51 139 1.0 3.0 0.00 0.00 0.00 60 1011.7
20260509005022 51 275 2.0 3.0 0.00 0.00 0.00 60 1011.5
20260509004030 52 302 1.0 4.0 0.00 0.00 0.00 59 1011.4
20260509003019 53 69 3.0 5.0 0.00 0.00 0.00 57 1011.2
20260509002027 53 59 3.0 5.0 0.00 0.00 0.00 55 1011.1
20260509001035 55 325 3.0 5.0 0.00 0.00 0.00 53 1011.0
20260509000045 56 342 3.0 5.0 0.00 0.00 0.00 51 1010.8
20260508235032 59 338 0.0 2.0 0.00 0.00 0.00 46 1010.6
20260508234022 62 330 1.0 3.0 0.00 0.00 0.00 41 1010.5
20260508233050 67 289 1.0 2.0 0.00 0.00 0.00 38 1010.5
20260508232019 68 304 1.0 2.0 0.00 0.00 0.00 36 1010.5
20260508231027 66 281 0.0 1.0 0.00 0.00 0.00 39 1010.4
20260508230035 67 272 1.0 3.0 0.00 0.00 0.00 37 1010.5
20260508225025 68 286 2.0 3.0 0.00 0.00 0.00 36 1010.6
20260508224033 67 282 2.0 5.0 0.00 0.00 0.00 37 1010.6
20260508223022 66 275 3.0 5.0 0.00 0.00 0.00 38 1010.6
20260508222030 66 294 3.0 7.0 0.00 0.00 0.00 38 1010.6
20260508221020 66 310 4.0 6.0 0.00 0.00 0.00 38 1010.6
20260508220028 66 290 2.0 4.0 0.00 0.00 0.00 39 1010.6
20260508215036 67 268 2.0 4.0 0.00 0.00 0.00 38 1010.6